[[{"header":{"parameterUnit":"m.s-1","parameterCategory":1,"la1":30.2991,"la2":30.254,"lo1":-89.0895,"lo2":-89.0444,"dy":0.0017,"dx":0.0017,"nx":28,"ny":28,"refTime":"2025-08-20T03:00:00:Z","depth":0,"parameterNumber":2,"parameterNumberName":"U-component_of_WINDS"},"data":[0,0,0,0,0,0,0,0,0,0,0,0,0,0,0,0,0,0,0,0,0,0,0,0,0,0,0,0,0,0,0,0,0,0,0,0,0,0,0,0,0,0,0,0,0,0,0,0,0,0,0,0,0,0,0,0,0,0,-0.9193,-0.9194,0,-0.9313,-0.9315,-0.9316,-0.9335,-0.9334,-0.9333,-0.9332,-0.9459,-0.9463,-0.9468,0,0,0,0,0,0,0,0,0,0,0,0,0,-0.8982,-0.8985,-0.9192,-0.9194,-0.9195,-0.9313,-0.9315,-0.9316,-0.9335,-0.9334,-0.9333,-0.9332,-0.9458,-0.9463,-0.9468,0,0,0,0,0,0,0,0,0,0,0,0,0,-0.9085,-0.8987,-0.9192,-0.9219,-0.9223,-0.9313,-0.9315,-0.9317,-0.9336,-0.9334,-0.9332,-0.9331,-0.9456,-0.9462,-0.9469,-0.9542,0,0,-0.9489,-0.9492,0,0,0,0,0,0,0,0,-0.9079,-0.9093,-0.9214,-0.9217,-0.9221,-0.9307,-0.9287,-0.9392,-0.9336,-0.9293,-0.9332,-0.933,-0.941,-0.942,-0.9447,-0.9548,-0.9553,-0.949,-0.9494,-0.9496,-0.9498,0,0,0,0,0,0,0,-0.9072,-0.9088,-0.924,-0.9215,-0.922,-0.9226,-0.9239,-0.9307,-0.9359,-0.9297,-0.9298,-0.9312,-0.9412,-0.944,-0.945,-0.9555,-0.9489,-0.9495,-0.9499,-0.9502,-0.9722,-0.9724,0,0,0,0,0,0,-0.9059,-0.9082,-0.9236,-0.9244,-0.9145,-0.9231,-0.9246,-0.9282,-0.9359,-0.9369,-0.9313,-0.9312,-0.943,-0.9442,-0.9454,-0.9545,-0.9496,-0.9503,-0.9506,-0.972,-0.9723,-0.9725,0,0,0,0,0,0,-0.9055,-0.9073,-0.9232,-0.9163,-0.9184,-0.9237,-0.9277,-0.9285,-0.9313,-0.9371,-0.9381,-0.9332,-0.9429,-0.9445,-0.952,-0.955,-0.9506,-0.9511,-0.9718,-0.9721,-0.9724,-0.9726,0,0,0,0,0,0,-0.9049,-0.9071,-0.9099,-0.9164,-0.9187,-0.9294,-0.9279,-0.9288,-0.9324,-0.9324,-0.9392,-0.9401,-0.9429,-0.951,-0.9526,-0.9558,-0.9517,-0.9716,-0.9719,-0.9723,-0.9724,-0.9729,-0.9733,0,0,0,0,0,-0.9041,-0.9095,-0.91,-0.9119,-0.9223,-0.9295,-0.9309,-0.9339,-0.9326,-0.9355,-0.9392,-0.9399,-0.9544,-0.9517,-0.9536,-0.957,-0.9714,-0.9718,-0.9723,-0.9722,-0.9728,-0.9733,0,0,0,0,0,0,-0.9034,-0.9104,-0.911,-0.9187,-0.9235,-0.9299,-0.9335,-0.9345,-0.9398,-0.9396,-0.9432,-0.9448,-0.952,-0.9553,-0.9522,-0.9645,-0.9628,-0.9636,-0.9621,-0.9627,-0.9632,-0.9623,-0.9522,0,0,0,0,0,-0.9041,-0.9093,-0.9152,-0.9214,-0.9238,-0.9282,-0.9315,-0.9334,-0.9386,-0.9407,-0.945,-0.95,-0.9557,-0.9594,-0.965,-0.9729,-0.9744,-0.9761,-0.9766,-0.977,-0.9777,-0.9821,-0.983,-0.9739,-0.9739,-0.9739,0,0,-0.9056,-0.9101,-0.9132,-0.9214,-0.9253,-0.9308,-0.9299,-0.9357,-0.9398,-0.9416,-0.9489,-0.9522,-0.9581,-0.9658,-0.9694,-0.9687,-0.9805,-0.9775,-0.9778,-0.9783,-0.9827,-0.9835,-0.9843,-0.9742,-0.9741,-0.9741,0,0,-0.9112,-0.9151,-0.9207,-0.9247,-0.9306,-0.9335,-0.9349,-0.9411,-0.9434,-0.9507,-0.9521,-0.9571,-0.9668,-0.971,-0.9744,-0.9815,-0.9824,-0.9833,-0.9858,-0.9901,-0.9908,-0.9915,-0.9941,-0.9949,-0.9839,-0.9839,-0.9839,0,-0.9125,-0.9206,-0.9235,-0.9292,-0.9328,-0.9345,-0.9403,-0.944,-0.9515,-0.954,-0.9531,-0.9653,-0.9694,-0.9781,-0.9799,-0.9826,-0.9843,-0.9825,-0.9904,-0.9911,-0.9918,-0.9943,-0.9953,-0.984,-0.984,-0.984,-0.984,0,-0.9218,-0.9274,-0.9313,-0.9383,-0.9423,-0.948,-0.9519,-0.9557,-0.9572,-0.9603,-0.9678,-0.9727,-0.9793,-0.9815,-0.9831,-0.9905,-0.9899,-0.9897,-0.9881,-0.9927,-0.9951,-0.9961,-0.9841,-0.9841,-0.984,-0.984,0,0,-0.9274,-0.9359,-0.9373,-0.9405,-0.9472,-0.9516,-0.9575,-0.9638,-0.9669,-0.9721,-0.9771,-0.9853,-0.9851,-0.9889,-0.991,-0.9948,-1.0002,-0.9941,-0.9943,-0.9951,-1.0087,-1.0089,-1.01,-1.0008,-1.001,-1.0012,-1.0083,0,-0.9338,-0.9441,-0.9469,-0.9556,-0.9609,-0.9626,-0.9677,-0.9724,-0.9754,-0.9804,-0.9838,-0.9895,-0.9888,-0.9912,-0.995,-0.9987,-1.003,-0.9983,-1.0057,-1.0059,-1.0041,-1.0112,-1.0114,-1.0179,-1.0092,-1.0094,-1.0095,0,-0.9427,-0.9478,-0.9571,-0.963,-0.9654,-0.9699,-0.9759,-0.9806,-0.986,-0.988,-0.9922,-0.994,-1.0002,-0.9982,-1.0069,-1.0037,-1.0068,-1.0092,-1.0095,-1.0103,-1.008,-1.0123,-1.02,-1.021,-1.011,-1.0109,-1.0108,0,-0.9458,-0.9551,-0.9618,-0.9645,-0.9717,-0.9748,-0.9779,-0.9832,-0.9868,-0.9921,-0.9946,-1.0006,-1.0039,-1.0086,-1.0119,-1.0102,-1.0204,-1.0187,-1.0223,-1.0222,-1.0244,-1.0242,-1.0327,-1.0264,-1.0263,-1.0263,-1.0263,0,-0.9527,-0.9583,-0.9633,-0.9675,-0.9738,-0.977,-0.9833,-0.9865,-0.9912,-0.9961,-0.9979,-1.0025,-1.0067,-1.0118,-1.0145,-1.0214,-1.0228,-1.0247,-1.0253,-1.0245,-1.0243,-1.0267,-1.0264,-1.0266,-1.0265,-1.0265,-1.0264,0,-0.9573,-0.9609,-0.9683,-0.9744,-0.9761,-0.9805,-0.9858,-0.99,-0.993,-0.9992,-1.0009,-1.0057,-1.0119,-1.0157,-1.0236,-1.0254,-1.0329,-1.0334,-1.031,-1.0314,-1.0348,-1.0344,-1.0452,-1.0468,-1.0393,-1.0393,-1.0394,0,-0.9615,-0.9658,-0.9724,-0.9757,-0.9789,-0.9842,-0.9879,-0.9913,-0.9951,-1.0016,-1.005,-1.0112,-1.0164,-1.0262,-1.0305,-1.0366,-1.0373,-1.0406,-1.0382,-1.0373,-1.0374,-1.0371,-1.0376,-1.041,-1.0411,-1.0411,-1.0412,0,-0.9686,-0.9701,-0.9753,-0.9811,-0.9854,-0.9902,-0.9949,-0.9976,-1.0018,-1.006,-1.0123,-1.0163,-1.0243,-1.0305,-1.0369,-1.0403,-1.0415,-1.0419,-1.0431,-1.0423,-1.0408,-1.0417,-1.0322,-1.0417,-1.0416,-1.0416,-1.0415,-1.0415,-0.9732,-0.9771,-0.9823,-0.988,-0.9919,-0.9963,-1.0005,-1.004,-1.0093,-1.016,-1.0177,-1.0243,-1.0296,-1.0383,-1.0419,-1.0471,-1.0467,-1.0483,-1.0488,-1.0492,-1.0492,-1.0399,-1.0483,-1.0483,-1.0483,-1.0483,-1.0483,0,-0.9804,-0.9838,-0.989,-0.9956,-1.0001,-1.0006,-1.0059,-1.0097,-1.0155,-1.0203,-1.0253,-1.0326,-1.0386,-1.0434,-1.0496,-1.053,-1.0537,-1.0545,-1.0543,-1.0551,-1.0493,-1.0477,-1.0538,-1.0538,-1.0538,-1.0538,-1.0538,-1.0538,-0.9847,-0.9914,-0.9935,-1.0022,-1.0056,-1.012,-1.015,-1.0191,-1.023,-1.0309,-1.0359,-1.0389,-1.0437,-1.0504,-1.056,-1.0572,-1.0595,-1.0602,-1.0616,-1.0561,-1.0555,-1.0549,-1.0534,-1.0607,-1.0607,-1.0669,-1.067,-1.067]},{"header":{"parameterUnit":"m.s-1","parameterCategory":1,"la1":30.2991,"la2":30.254,"lo1":-89.0895,"lo2":-89.0444,"dy":0.0017,"dx":0.0017,"nx":28,"ny":28,"refTime":"2025-08-20T03:00:00:Z","depth":0,"parameterNumber":3,"parameterNumberName":"V-component_of_WINDS"},"data":[0,0,0,0,0,0,0,0,0,0,0,0,0,0,0,0,0,0,0,0,0,0,0,0,0,0,0,0,0,0,0,0,0,0,0,0,0,0,0,0,0,0,0,0,0,0,0,0,0,0,0,0,0,0,0,0,0,0,0.1279,0.1279,0,0.1273,0.1273,0.1273,0.128,0.128,0.128,0.1281,0.1274,0.1274,0.1273,0,0,0,0,0,0,0,0,0,0,0,0,0,0.1294,0.1294,0.1279,0.1279,0.1279,0.1273,0.1273,0.1273,0.128,0.128,0.1281,0.1281,0.1274,0.1274,0.1273,0,0,0,0,0,0,0,0,0,0,0,0,0,0.1288,0.1294,0.1279,0.1281,0.1282,0.1273,0.1273,0.1273,0.128,0.128,0.1281,0.1281,0.1274,0.1274,0.1273,0.1262,0,0,0.1271,0.1271,0,0,0,0,0,0,0,0,0.1288,0.1287,0.1281,0.1281,0.1281,0.1278,0.1276,0.1269,0.128,0.128,0.1281,0.1281,0.1275,0.1274,0.1272,0.1261,0.1261,0.1271,0.1271,0.1271,0.127,0,0,0,0,0,0,0,0.1289,0.1288,0.1276,0.1281,0.1281,0.1283,0.1282,0.1275,0.1276,0.128,0.1281,0.128,0.1275,0.1273,0.1272,0.1261,0.1271,0.1271,0.127,0.127,0.124,0.124,0,0,0,0,0,0,0.1289,0.1288,0.1277,0.1276,0.1286,0.1282,0.1281,0.1278,0.1276,0.1276,0.128,0.1281,0.1274,0.1273,0.1272,0.1258,0.1271,0.127,0.127,0.1241,0.124,0.124,0,0,0,0,0,0,0.1289,0.1288,0.1277,0.1282,0.1281,0.1281,0.1278,0.1278,0.1276,0.1275,0.1275,0.1278,0.1274,0.1273,0.1264,0.1258,0.127,0.1269,0.1241,0.1241,0.124,0.123,0,0,0,0,0,0,0.129,0.1288,0.1284,0.1282,0.1281,0.1269,0.1278,0.1278,0.1275,0.1276,0.1273,0.1273,0.1274,0.1265,0.1264,0.1257,0.1269,0.1242,0.1241,0.124,0.1231,0.123,0.1228,0,0,0,0,0,0.129,0.1281,0.1284,0.1282,0.1276,0.1269,0.1268,0.127,0.1275,0.127,0.127,0.1273,0.1259,0.1264,0.1263,0.1256,0.1242,0.1241,0.124,0.1232,0.123,0.1228,0,0,0,0,0,0,0.1282,0.1281,0.1284,0.1274,0.1271,0.127,0.1265,0.1268,0.1264,0.1265,0.1267,0.1266,0.1257,0.1256,0.1261,0.1245,0.1251,0.125,0.1246,0.1244,0.1242,0.1242,0.1268,0,0,0,0,0,0.1279,0.1274,0.1273,0.1265,0.1264,0.1264,0.1262,0.1263,0.1261,0.126,0.1259,0.1256,0.1251,0.1247,0.1243,0.1232,0.1231,0.1226,0.1225,0.1223,0.1222,0.1215,0.1213,0.1237,0.1237,0.1237,0,0,0.1272,0.1271,0.1268,0.1263,0.1261,0.1256,0.1263,0.1257,0.1253,0.1259,0.125,0.125,0.1247,0.1237,0.1232,0.1235,0.1215,0.1222,0.1221,0.122,0.1214,0.1212,0.121,0.1236,0.1236,0.1236,0,0,0.1258,0.1257,0.125,0.1248,0.1245,0.1246,0.1244,0.1243,0.1242,0.1234,0.1238,0.1233,0.1225,0.1222,0.122,0.1205,0.1208,0.1203,0.1195,0.1188,0.1187,0.1185,0.1179,0.1177,0.1202,0.1202,0.1202,0,0.125,0.1242,0.1245,0.1239,0.1236,0.1242,0.1234,0.1232,0.1228,0.1226,0.123,0.1219,0.1218,0.1207,0.1203,0.1201,0.1199,0.1203,0.1187,0.1185,0.1184,0.1178,0.1176,0.1201,0.1202,0.1202,0.1202,0,0.1233,0.1227,0.1222,0.1218,0.1215,0.1208,0.1209,0.1206,0.1208,0.1208,0.12,0.1198,0.1193,0.1191,0.1193,0.118,0.1182,0.1186,0.1193,0.1181,0.1175,0.1173,0.1201,0.1201,0.1201,0.1201,0,0,0.1212,0.1211,0.1208,0.1207,0.1204,0.12,0.1193,0.1189,0.1185,0.1183,0.1177,0.1169,0.1173,0.1171,0.1172,0.1167,0.1155,0.1172,0.1172,0.1168,0.114,0.1136,0.1134,0.1157,0.1156,0.1156,0.114,0,0.1198,0.1186,0.1188,0.1177,0.1171,0.1176,0.1171,0.1168,0.1168,0.1164,0.1164,0.1158,0.1164,0.1163,0.1158,0.1157,0.1149,0.1158,0.1151,0.115,0.115,0.1131,0.1127,0.1112,0.1138,0.1138,0.1138,0,0.1178,0.1175,0.1163,0.1162,0.1159,0.1154,0.115,0.1146,0.1143,0.1144,0.1141,0.1144,0.1137,0.1144,0.1134,0.114,0.1137,0.1137,0.1136,0.1135,0.1143,0.1129,0.1108,0.1105,0.1134,0.1135,0.1135,0,0.1164,0.1156,0.1148,0.1147,0.1145,0.1141,0.114,0.1138,0.1135,0.1132,0.113,0.1125,0.1123,0.1119,0.112,0.1126,0.111,0.1117,0.1109,0.1109,0.1105,0.1105,0.1082,0.1105,0.1105,0.1105,0.1105,0,0.1146,0.1139,0.1142,0.1136,0.1128,0.1131,0.1122,0.1122,0.112,0.1115,0.1119,0.1114,0.1116,0.1111,0.1112,0.1103,0.1102,0.1102,0.1102,0.1101,0.1101,0.1099,0.1099,0.1104,0.1104,0.1104,0.1104,0,0.1128,0.113,0.1121,0.112,0.112,0.1114,0.1113,0.1108,0.1109,0.1102,0.11,0.1101,0.1095,0.1097,0.109,0.1091,0.108,0.1082,0.108,0.1081,0.1072,0.1073,0.1046,0.1043,0.1068,0.1068,0.1068,0,0.1117,0.1111,0.111,0.1106,0.1105,0.11,0.1097,0.11,0.1097,0.1094,0.1089,0.1084,0.1079,0.107,0.107,0.1065,0.1066,0.1057,0.1065,0.1064,0.1065,0.1065,0.1064,0.1055,0.1055,0.1055,0.1055,0,0.1096,0.1097,0.1093,0.1088,0.1085,0.1082,0.1079,0.1076,0.1079,0.1075,0.1069,0.1066,0.106,0.1054,0.105,0.1048,0.1052,0.1052,0.105,0.1048,0.1048,0.1047,0.1075,0.1053,0.1053,0.1053,0.1053,0.1053,0.108,0.1075,0.1073,0.1068,0.1066,0.1064,0.1059,0.1059,0.1055,0.105,0.1052,0.1045,0.1043,0.1037,0.1035,0.103,0.1033,0.103,0.1029,0.1028,0.1027,0.1049,0.1029,0.1029,0.1029,0.1029,0.1029,0,0.1059,0.1058,0.1053,0.1049,0.1045,0.1049,0.1047,0.1043,0.1037,0.1035,0.1031,0.1024,0.1019,0.1018,0.1013,0.1009,0.101,0.1007,0.1007,0.1007,0.1024,0.1027,0.1006,0.1006,0.1006,0.1006,0.1006,0.1006,0.1047,0.1038,0.1039,0.103,0.1029,0.1022,0.102,0.1018,0.1016,0.1009,0.1004,0.1004,0.1003,0.0998,0.0993,0.0993,0.099,0.0987,0.0987,0.1003,0.1006,0.1008,0.101,0.0986,0.0986,0.097,0.097,0.097]}]]